This is the latest recevied weather packets stored in our database for station/object KK7MLS-13. If no packets are shown the sender has not sent any weather packets the latest 10 day(s).
| Time | Temp. | Humidity | Pressure | Rain* | Wind** | Luminosity | Snow |
|---|---|---|---|---|---|---|---|
| 1777407879 | 15.56° C | 52% | 1024.1 hPa | 0 mm | - | 152 W/m² | - |
| 1777407578 | 15.56° C | 56% | 1024 hPa | 0 mm | - | 199 W/m² | - |
| 1777407277 | 15.56° C | 51% | 1024 hPa | 0 mm | - | 319 W/m² | - |
| 1777406971 | 15° C | 55% | 1024 hPa | 0 mm | - | 356 W/m² | - |
| 1777406671 | 15° C | 56% | 1024 hPa | 0 mm | - | 323 W/m² | - |
| 1777406367 | 15° C | 59% | 1024.1 hPa | 0 mm | - | 356 W/m² | - |
| 1777406066 | 14.44° C | 59% | 1024.1 hPa | 0 mm | - | 322 W/m² | - |
| 1777405763 | 14.44° C | 58% | 1024.2 hPa | 0 mm | - | 240 W/m² | - |
| 1777405460 | 14.44° C | 56% | 1024.4 hPa | 0 mm | - | 216 W/m² | - |
| 1777405158 | 14.44° C | 57% | 1024.2 hPa | 0 mm | - | 219 W/m² | - |
| 1777404855 | 15° C | 55% | 1024.2 hPa | 0 mm | - | 245 W/m² | - |
| 1777404552 | 14.44° C | 58% | 1024.3 hPa | 0 mm | - | 263 W/m² | - |
| 1777404249 | 14.44° C | 58% | 1024.5 hPa | 0 mm | - | 328 W/m² | - |
| 1777403944 | 13.89° C | 59% | 1024.2 hPa | 0 mm | - | 331 W/m² | - |
| 1777403644 | 13.89° C | 58% | 1024.4 hPa | 0 mm | - | 256 W/m² | - |
| 1777403344 | 13.33° C | 60% | 1024.5 hPa | 0 mm | - | 269 W/m² | - |
| 1777403038 | 13.33° C | 61% | 1024.5 hPa | 0 mm | - | 244 W/m² | - |
| 1777402734 | 13.33° C | 62% | 1024.4 hPa | 0 mm | - | 158 W/m² | - |
| 1777402429 | 13.33° C | 60% | 1024.3 hPa | 0 mm | - | 152 W/m² | - |
| 1777402128 | 12.78° C | 63% | 1024.4 hPa | 0 mm | - | 231 W/m² | - |
| 1777401823 | 12.78° C | 62% | 1024.3 hPa | 0 mm | - | 179 W/m² | - |
| 1777401523 | 13.33° C | 62% | 1024.3 hPa | 0 mm | - | 126 W/m² | - |
| 1777401218 | 13.33° C | 61% | 1024.4 hPa | 0 mm | - | 127 W/m² | - |
| 1777400914 | 13.33° C | 63% | 1024.4 hPa | 0 mm | - | 126 W/m² | - |
| 1777400610 | 13.33° C | 61% | 1024.3 hPa | 0 mm | - | 136 W/m² | - |
* Rain latest hour (hover to see other rain measurements)
** Current wind speed in m/s (hover to see current wind gust speed)